2025-131D

Last updated on Thu Jul 03 2025 00:02:08 GMT+0000 (Coordinated Universal Time)

1 64527U 25131D 25183.75044640 -.00000345 00000+0 00000+0 0 9996 2 64527 1.0527 280.5374 3677069 174.0614 201.4117 1.00270126 129
UTC large
Height (km)
Speed (km/s)
/
Latitude / Longitude
Inclination (degrees)
Orbital Period (minutes)
Azimuth
Elevation
Range (km)
Doppler Factor

Next 0 passes for location: London (51.5072 / 0.1276)

Sorry there are no passes over London.